RADUGA 5 [-]

Last updated on July 6, 2021, 3:35 p.m. UTC

1 11343U 79035A   21186.87516120  .00000024  00000-0  00000-0 0  9990
2 11343   9.7030 303.4914 0006667 149.0951 211.0382  1.00269193111226
UTC
Height (km)
Latitude
Longitude
Inclination
Orbital Period
UTC large
Height (km)
Speed (km/s)
/
Latitude / Longitude
Inclination (degrees)
Orbital Period (minutes)
Azimuth
Elevation
Range (km)
Doppler Factor
iOS Compass Heading
iOS Angle